User: anonymous   Login
Location: Isle of Man Observatory
(54.1776°N, 4.6264°W)
Time: 13:03:19
(UTC+01:00)
Language:

Tiangong - Orbit

View from above orbital plane
View from above orbital plane
View from above satellite
View from above satellite

Ground track
Ground track

The orbit data is extracted from the following two-line orbital elements,

1 48274U 21035A   22338.24722390  .00020998  00000-0  26284-3 0  9996
2 48274  41.4771 263.3901 0005969  11.7317 116.1668 15.59272697 91354
Epoch (UTC): 04 December 2022 05:56:00
Eccentricity: 0.0005969
inclination: 41.4771°
perigee height: 386 km
apogee height: 394 km
right ascension of ascending node: 263.3901°
argument of perigee: 11.7317°
revolutions per day: 15.59272697
mean anomaly at epoch: 116.1668°
orbit number at epoch: 9135

The dashed part of the orbit path shows where the satellite is in the earth's shadow,  

DLR